Weather reports worldwide

Advertisment
Valley, United Kingdom (3302): temperature & dewpoint: 11.07.2019 06:00:00 - 17.07.2019 06:00:00 (BST)Valley, United Kingdom (3302): temperature -20cm & temperature -100cm: 11.07.2019 06:00:00 - 17.07.2019 06:00:00 (BST)Valley, United Kingdom (3302): wind speed: 11.07.2019 06:00:00 - 17.07.2019 06:00:00 (BST)Valley, United Kingdom (3302): wind direction: 11.07.2019 06:00:00 - 17.07.2019 06:00:00 (BST)Valley, United Kingdom (3302): reduced air pressure: 11.07.2019 06:00:00 - 17.07.2019 06:00:00 (BST)Valley, United Kingdom (3302): visibility: 11.07.2019 06:00:00 - 17.07.2019 06:00:00 (BST)Valley, United Kingdom (3302): sunshine duration: 11.07.2019 06:00:00 - 17.07.2019 06:00:00 (BST)Valley, United Kingdom (3302): precipitation: 11.07.2019 06:00:00 - 17.07.2019 06:00:00 (BST)
Date & Time tt [°C] td [°C] tt -20cm [°C] tt -100cm [°C] ff [km/h] ff [kn] dd ppp [hPa] vv [km] sd [min] rr [mm]
17.07.2019 06:00:00 15,9 14,8 - - 26 14 S 1013,9 10 0 0,0
17.07.2019 05:00:00 15,8 14,7 - - 22 12 S 1014,4 14 0 0,0
17.07.2019 04:00:00 15,9 14,9 - - 24 13 S 1014,9 13 0 0,0
17.07.2019 03:00:00 15,9 14,7 - - 26 14 S 1015,5 16 0 0,0
17.07.2019 02:00:00 16,0 14,7 - - 28 15 S 1016,3 10 0 0,0
17.07.2019 01:00:00 15,8 14,3 - - 28 15 S 1016,5 23 - 0,0
17.07.2019 00:00:00 15,8 14,1 - - 24 13 S 1016,8 24 0 0,0
16.07.2019 23:00:00 15,9 14,0 - - 22 12 S 1017,2 35 0 0,0
16.07.2019 22:00:00 16,0 14,0 - - 22 12 S 1017,4 10 0 0,0
16.07.2019 21:00:00 16,2 14,1 - - 22 12 S 1017,4 35 42 0,0
16.07.2019 20:00:00 16,9 14,3 - - 21 11 SSW 1017,6 20 60 0,0
16.07.2019 19:00:00 17,0 14,4 - - 21 11 S 1017,8 27 60 0,0
16.07.2019 18:00:00 18,3 14,9 - - 18 10 SSW 1018,1 10 60 0,0
16.07.2019 17:00:00 19,1 15,3 - - 21 11 SSW 1018,4 10 54 0,0
16.07.2019 16:00:00 19,0 14,5 - - 21 11 SSW 1018,7 10 60 0,0
16.07.2019 15:00:00 18,3 14,3 - - 21 11 SSW 1019,0 10 60 0,0
16.07.2019 14:00:00 18,3 14,3 - - 21 11 SSW 1019,3 35 60 0,0
16.07.2019 13:00:00 18,8 14,7 - - 18 10 SSW 1019,4 30 60 0,0
16.07.2019 12:00:00 19,2 15,2 - - 21 11 SSW 1019,6 30 60 0,0
16.07.2019 11:00:00 18,6 14,7 - - 21 11 SSW 1019,8 10 60 0,0
16.07.2019 10:00:00 18,0 14,4 18,4 16,7 21 11 S 1019,8 10 60 -
16.07.2019 09:00:00 17,1 14,7 - - 21 11 S 1020,0 15 60 0,0
16.07.2019 08:00:00 16,1 15,0 - - 18 10 S 1019,9 10 48 0,0
16.07.2019 07:00:00 15,2 14,5 - - 16 9 S 1019,8 12 0 0,0
16.07.2019 06:00:00 15,1 14,4 - - 18 10 S 1019,9 12 0 0,0
16.07.2019 05:00:00 14,7 13,9 - - 16 9 S 1019,9 11 0 0,0
16.07.2019 04:00:00 14,8 13,7 - - 15 8 SSW 1020,0 14 0 0,0
16.07.2019 03:00:00 15,1 13,8 - - 18 10 SSW 1020,3 21 0 0,0
16.07.2019 02:00:00 14,9 13,6 - - 13 7 S 1020,3 10 0 0,0
16.07.2019 01:00:00 14,9 13,6 - - 15 8 S 1020,5 19 - 0,0
16.07.2019 00:00:00 15,4 13,9 - - 16 9 S 1020,7 10 0 0,0
15.07.2019 23:00:00 15,4 13,6 - - 15 8 S 1020,8 30 0 0,0
15.07.2019 22:00:00 15,9 13,5 - - 15 8 S 1020,8 10 0 0,0
15.07.2019 21:00:00 16,2 13,4 - - 13 7 S 1020,9 10 12 0,0
15.07.2019 20:00:00 17,8 13,7 - - 15 8 SSW 1020,8 10 60 0,0
15.07.2019 19:00:00 17,5 13,7 - - 15 8 S 1020,9 10 60 0,0
15.07.2019 18:00:00 18,0 13,9 - - 13 7 SSW 1021,0 10 60 0,0
15.07.2019 17:00:00 19,1 13,7 - - 16 9 SSW 1021,3 10 60 0,0
15.07.2019 16:00:00 18,9 14,0 - - 16 9 SSW 1021,7 10 60 0,0
15.07.2019 15:00:00 19,3 14,9 - - 18 10 SSW 1021,9 10 54 0,0
15.07.2019 14:00:00 19,3 14,2 - - 16 9 SSW 1022,1 10 60 0,0
15.07.2019 13:00:00 19,6 14,3 - - 21 11 SSW 1022,3 10 60 0,0
15.07.2019 12:00:00 19,2 14,0 - - 18 10 SSW 1022,4 10 60 0,0
15.07.2019 11:00:00 18,6 13,6 - - 16 9 SSW 1022,3 10 54 0,0
15.07.2019 10:00:00 19,5 14,0 17,7 16,2 15 8 S 1022,2 10 60 0,0
15.07.2019 09:00:00 18,5 13,5 - - 16 9 S 1022,3 10 60 0,0
15.07.2019 08:00:00 18,3 13,5 - - 15 8 S 1022,0 10 54 0,0
15.07.2019 07:00:00 16,1 12,7 - - 9 5 SE 1022,0 10 18 0,0
15.07.2019 06:00:00 13,9 11,7 - - 9 5 ESE 1022,0 27 0 0,0
15.07.2019 05:00:00 15,0 12,1 - - 8 4 ESE 1022,0 30 0 0,0
15.07.2019 04:00:00 14,7 12,7 - - 8 4 E 1022,1 25 0 0,0
15.07.2019 03:00:00 14,4 13,0 - - 11 6 E 1022,4 17 0 0,0
15.07.2019 02:00:00 14,3 13,0 - - 9 5 ENE 1022,7 16 0 0,0
15.07.2019 01:00:00 14,2 13,0 - - 11 6 ENE 1022,7 17 - 0,0
15.07.2019 00:00:00 14,6 13,1 - - 13 7 ENE 1022,8 30 0 0,0
14.07.2019 23:00:00 15,1 13,4 - - 16 9 ENE 1022,9 30 0 0,0
14.07.2019 22:00:00 15,7 13,4 - - 15 8 NE 1023,0 30 12 0,0
14.07.2019 21:00:00 17,1 13,7 - - 16 9 NE 1023,2 30 60 0,0
14.07.2019 20:00:00 18,3 13,4 - - 18 10 ENE 1023,4 7 60 0,0
14.07.2019 19:00:00 19,3 13,4 - - 18 10 NE 1023,5 45 60 0,0
14.07.2019 18:00:00 19,8 13,6 - - 16 9 NE 1023,8 10 54 0,0
14.07.2019 17:00:00 19,4 13,1 - - 15 8 NE 1024,1 35 6 0,0
14.07.2019 16:00:00 18,3 13,6 - - 15 8 NNW 1024,5 30 6 0,0
14.07.2019 15:00:00 17,8 13,4 - - 15 8 NNW 1024,6 10 0 0,0
14.07.2019 14:00:00 17,2 12,6 - - 15 8 NNW 1024,7 29 0 0,0
14.07.2019 13:00:00 15,5 11,9 - - 15 8 NNW 1024,9 20 0 0,0
14.07.2019 12:00:00 15,6 11,8 - - 11 6 WNW 1024,9 30 0 0,0
14.07.2019 11:00:00 16,5 11,7 - - 11 6 SW 1024,7 35 36 0,0
14.07.2019 10:00:00 16,0 11,7 17,2 16,2 9 5 SW 1024,7 30 18 0,0
14.07.2019 09:00:00 15,3 11,6 - - 4 2 ESE 1024,7 24 6 0,0
14.07.2019 08:00:00 13,9 11,3 - - 9 5 NE 1024,7 30 0 0,0
14.07.2019 07:00:00 13,2 11,4 - - 8 4 N 1024,5 17 0 0,0
14.07.2019 06:00:00 12,7 10,9 - - 8 4 N 1024,5 17 0 0,0
14.07.2019 05:00:00 12,9 11,0 - - 15 8 N 1024,6 25 0 0,0
14.07.2019 04:00:00 12,1 10,1 - - 9 5 N 1024,8 26 0 0,0
14.07.2019 03:00:00 12,7 10,2 - - 16 9 N 1025,2 30 0 0,0
14.07.2019 02:00:00 12,9 10,3 - - 16 9 N 1025,4 30 0 0,0
14.07.2019 01:00:00 13,1 10,4 - - 9 5 NE 1025,8 40 - 0,0
14.07.2019 00:00:00 12,9 9,9 - - 11 6 NE 1025,7 40 0 0,0
13.07.2019 23:00:00 13,7 10,4 - - 13 7 NNE 1025,8 45 0 0,0
13.07.2019 22:00:00 14,2 10,5 - - 9 5 NNW 1025,8 40 18 0,0
13.07.2019 21:00:00 15,3 10,8 - - 15 8 N 1025,6 10 24 0,0
13.07.2019 20:00:00 15,6 10,4 - - 13 7 NNW 1025,7 45 24 0,0
13.07.2019 19:00:00 16,3 10,2 - - 16 9 N 1025,6 10 60 0,0
13.07.2019 18:00:00 17,2 10,1 - - 22 12 NNW 1025,5 50 60 0,0
13.07.2019 17:00:00 16,8 10,4 - - 22 12 NNW 1025,6 35 42 0,0
13.07.2019 16:00:00 16,5 9,9 - - 24 13 NNW 1025,6 45 12 0,0
13.07.2019 15:00:00 16,3 10,6 - - 26 14 NNW 1025,7 26 0 0,0
13.07.2019 14:00:00 16,6 11,2 - - 26 14 NNW 1025,5 29 0 0,0
13.07.2019 13:00:00 16,7 12,5 - - 24 13 NNW 1025,5 30 0 0,0
13.07.2019 12:00:00 16,2 11,8 - - 26 14 NNW 1025,3 10 0 0,0
13.07.2019 11:00:00 15,5 12,2 - - 21 11 NNW 1025,3 35 0 0,0
13.07.2019 10:00:00 15,1 12,2 17,7 16,4 21 11 NW 1025,0 10 0 0,0
13.07.2019 09:00:00 15,1 12,6 - - 21 11 NW 1024,6 10 0 0,0
13.07.2019 08:00:00 14,7 12,8 - - 16 9 NW 1024,3 24 0 0,0
13.07.2019 07:00:00 14,7 12,8 - - 16 9 NW 1023,8 30 0 0,0
13.07.2019 06:00:00 14,6 12,5 - - 18 10 NW 1023,6 17 0 0,0
13.07.2019 05:00:00 14,7 12,4 - - 15 8 NW 1023,3 40 0 0,0
13.07.2019 04:00:00 14,9 12,0 - - 16 9 NW 1022,9 50 0 0,0
13.07.2019 03:00:00 14,9 12,8 - - 16 9 NW 1022,9 50 0 0,0
13.07.2019 02:00:00 14,8 13,5 - - 15 8 NNW 1022,8 45 0 0,2
13.07.2019 01:00:00 15,0 14,0 - - 13 7 N 1022,9 6 - 0,0
13.07.2019 00:00:00 15,2 14,2 - - 8 4 NNW 1022,7 11 0 0,0
12.07.2019 23:00:00 15,1 13,6 - - 4 2 NW 1022,2 40 0 0,0
12.07.2019 22:00:00 15,2 13,6 - - 8 4 NNW 1022,0 40 0 0,0
12.07.2019 21:00:00 15,6 13,9 - - 9 5 NW 1021,5 4,7 0 0,0
12.07.2019 20:00:00 16,9 13,7 - - 18 10 NW 1021,1 50 0 0,0
12.07.2019 19:00:00 17,1 13,3 - - 18 10 W 1020,8 10 0 0,0
12.07.2019 18:00:00 17,5 13,4 - - 21 11 WNW 1020,4 10 0 0,0
12.07.2019 17:00:00 18,2 12,5 - - 22 12 W 1019,9 50 24 0,0
12.07.2019 16:00:00 18,9 13,3 - - 22 12 W 1019,8 10 54 0,0
12.07.2019 15:00:00 19,5 13,0 - - 24 13 W 1019,1 10 36 0,0
12.07.2019 14:00:00 18,9 13,0 - - 21 11 WNW 1019,1 10 0 0,0
12.07.2019 13:00:00 17,7 13,0 - - 24 13 WNW 1018,8 10 0 0,0
12.07.2019 12:00:00 17,2 13,1 - - 24 13 WNW 1018,2 10 0 0,0
12.07.2019 11:00:00 16,8 13,0 - - 28 15 NW 1017,7 10 0 0,0
12.07.2019 10:00:00 16,1 13,9 17,5 16,4 26 14 WNW 1017,2 10 0 0,0
12.07.2019 09:00:00 15,8 14,0 - - 21 11 WNW 1016,7 10 0 0,0
12.07.2019 08:00:00 15,7 13,8 - - 18 10 WNW 1016,0 10 0 0,0
12.07.2019 07:00:00 15,6 14,0 - - 18 10 NW 1015,3 10 0 0,0
12.07.2019 06:00:00 14,8 13,8 - - 15 8 WNW 1014,9 26 0 0,0
12.07.2019 05:00:00 14,6 13,4 - - 13 7 WNW 1014,3 18 0 0,0
12.07.2019 04:00:00 15,2 13,9 - - 16 9 WNW 1013,8 30 0 0,0
12.07.2019 03:00:00 15,3 14,4 - - 11 6 WNW 1013,5 40 0 0,0
12.07.2019 02:00:00 14,7 14,5 - - 5 3 WNW 1013,1 10 0 0,0
12.07.2019 01:00:00 13,7 13,5 - - 9 5 S 1012,8 0,6 - 0,0
12.07.2019 00:00:00 14,0 13,7 - - 8 4 SSW 1012,9 0,3 0 0,0
11.07.2019 23:00:00 14,1 13,8 - - 8 4 SSW 1012,7 0,2 0 0,0
11.07.2019 22:00:00 14,4 13,9 - - 11 6 SW 1012,4 0,3 0 0,0
11.07.2019 21:00:00 15,1 14,4 - - 15 8 SSW 1011,8 2,0 0 0,0
11.07.2019 20:00:00 15,6 14,6 - - 5 3 S 1011,7 7 0 0,0
11.07.2019 19:00:00 15,7 14,8 - - 11 6 WSW 1011,9 9 0 0,0
11.07.2019 18:00:00 15,9 15,0 - - 11 6 W 1011,9 10 0 0,0
11.07.2019 17:00:00 15,9 14,6 - - 16 9 WSW 1012,0 7 0 0,0
11.07.2019 16:00:00 16,2 15,7 - - 21 11 SSW 1011,8 8 0 0,0
11.07.2019 15:00:00 15,4 14,8 - - 18 10 SSW 1011,8 3,0 0 0,4
11.07.2019 14:00:00 16,3 14,9 - - 24 13 SW 1011,9 1,5 0 0,0
11.07.2019 13:00:00 17,4 15,2 - - 28 15 SSW 1011,7 10 0 0,0
11.07.2019 12:00:00 17,4 15,4 - - 29 16 SSW 1011,7 10 0 0,0
11.07.2019 11:00:00 16,6 14,8 - - 24 13 SSW 1011,7 10 18 0,0
11.07.2019 10:00:00 16,2 15,5 17,7 16,4 24 13 SW 1011,7 10 42 0,0
11.07.2019 09:00:00 15,6 15,3 - - 26 14 SSW 1011,4 10 0 0,0
11.07.2019 08:00:00 15,0 14,7 - - 24 13 SSW 1011,4 10 0 0,4
11.07.2019 07:00:00 14,8 14,1 - - 26 14 SW 1011,5 7 0 0,0
11.07.2019 06:00:00 14,7 13,9 - - 26 14 SSW 1011,6 16 0 0,0

tt = temperature
td = dewpoint
tt -20cm = temperature -20cm
tt -100cm = temperature -100cm
ff = wind speed
dd = wind direction
ppp = reduced air pressure
vv = visibility
sd = sunshine duration
rr = precipitation

Next stations